星链-32277 (STARLINK-32277)

导读 | 豆包AI

STARLINK-32277是美国于2024年8月4日发射的星链卫星,隶属于SpaceX打造的星链卫星互联网星座项目。该卫星主要为全球范围内用户提供低延迟、高速率的卫星宽带互联网接入服务,尤其能覆盖地面网络难以抵达的偏远区域,进一步扩充了星链星座的服务覆盖范围与网络容量,推动全球卫星互联网建设进程。

基本信息
目录编号:
60376
目录名称:
STARLINK-32277
国际标识:
2024-138X
轨道中心:
EARTH
卫星名称:
星链-32277 (STARLINK-32277)
卫星全名:
星链-32277 (STARLINK-32277)
卫星状态:
在轨 (已飞行588 天)
发射日期:
2024-08-04 UTC
国别 :
美国 (US)
星等 :
--
轨道信息
数据来源 国际轨道数据
星历时间: 2026-03-15T15:06:53+0800
7小时前
查看轨道信息
半长轴: 6853.374km
偏心率: 0.0000936
轨道倾角: 53.161°
近地点辐角 91.340°
升交点赤经 283.726°
平近点角 268.771°
近地点: 474.595km
远地点: 475.879km
周期: 94.106分钟
每日圈数: 15.301927
详细信息
卫星平台:
Starlink v2.0 mini
运营商:
太空探索技术公司
运营商所在国:
美国
制造商(研发单位):
太空探索技术公司
制造商所在国:
美国
使用方式:
暂无
卫星简介
星链(Starlink)计划是由太空探索技术公司(SpaceX)提出的一个巨型低轨卫星互联网星座项目,计划在2019年至2024年间在太空搭建由约1.2万颗卫星组成的“星链”网络,其中1584颗将部署在地球上空550千米处的近地轨道,并从2020年开始工作。该卫星仍在工作。
2D轨道图
3D轨道图
轨道高度分析图
轨道倾角分析图
轨道综合分析图
查看轨道综合分析图